Regional Weather Roundup
Issued by NWS

Home | Current Version | Previous Version | Graphics & Text | Print | Product List | Glossary On
Versions: 1 2 3 4 5 6 7 8 9 10 11 12 13 14 15 16 17 18 19 20 21 22 23 24 25 26 27 28 29 30 31 32 33 34 35 36 37 38 39 40 41 42 43 44 45 46 47 48 49 50
000
ASUS43 KOAX 251710
RWRNE

WEATHER ROUNDUP FOR NEBRASKA
NATIONAL WEATHER SERVICE OMAHA NE
1200 PM CDT SAT OCT 25 2014

NOTES: SATELLITE DATA IS BEING USED TO AUGMENT CLOUD COVER ABOVE
       12000 FEET.
       "FAIR" INDICATES FEW OR NO CLOUDS BELOW 12,000 FEET WITH NO
       SIGNIFICANT WEATHER AND/OR OBSTRUCTIONS TO VISIBILITY.

  * THESE STATIONS DO NOT REPORT WEATHER SUCH AS RAIN...SNOW OR FOG.

NEZ001>004-019>022-054>056-251800-
NEBRASKA PANHANDLE

CITY           SKY/WX    TMP DP  RH WIND       PRES   REMARKS
SCOTTSBLUFF    SUNNY     59  32  36 CALM      30.16F
ALLIANCE       SUNNY     54  37  52 CALM      30.16F
CHADRON        SUNNY     54  38  54 CALM      30.15F
KIMBALL        SUNNY     73  28  19 W5        30.18F
SIDNEY         SUNNY     67  37  33 SE6       30.18F
$$

NEZ057>060-069>072-079>082-251800-
SOUTHWEST NEBRASKA

CITY           SKY/WX    TMP DP  RH WIND       PRES   REMARKS
NORTH PLATTE   SUNNY     65  45  48 SE7       30.13F
IMPERIAL       SUNNY     67  37  33 N6        30.13F
LEXINGTON      SUNNY     67  46  46 E8        30.13S
MCCOOK         SUNNY     65  46  50 E6        30.12F
OGALLALA       SUNNY     62  40  43 CALM      30.15F
$$

NEZ005>010-023>029-035>040-094-251800-
NORTH CENTRAL NEBRASKA

CITY           SKY/WX    TMP DP  RH WIND       PRES   REMARKS
VALENTINE      SUNNY     63  29  27 E13       30.17F
AINSWORTH      SUNNY     62  32  32 E10       30.18S
BROKEN BOW     SUNNY     66  42  41 E10       30.14F
O`NEILL        SUNNY     64  36  35 E9        30.17S
ORD            SUNNY     65  39  38 E12       30.14S
THEDFORD       SUNNY     63  36  35 E13       30.17S
$$

NEZ041-046>049-061>064-073>077-083>087-251800-
SOUTH CENTRAL NEBRASKA

CITY           SKY/WX    TMP DP  RH WIND       PRES   REMARKS
GRAND ISLAND   SUNNY     66  45  46 NE6       30.13F
AURORA         SUNNY     67  43  42 E7        30.12F
HASTINGS       SUNNY     67  45  45 NE9       30.12S
HEBRON         SUNNY     69  48  46 E7        30.11S
HOLDREGE       SUNNY     66  46  48 CALM      30.12F
KEARNEY *      SUNNY     64  45  48 NE7       30.14S
YORK           SUNNY     66  48  52 E12       30.12F
$$

NEZ011>018-030>034-042>045-251800-
NORTHEAST NEBRASKA

CITY           SKY/WX    TMP DP  RH WIND       PRES   REMARKS
NORFOLK        SUNNY     66  40  38 E8        30.15R
ALBION         SUNNY     65  37  35 E10       30.15S
BLAIR          SUNNY     65  41  41 NE9       30.12S
COLUMBUS *     SUNNY     66  37  34 E13       30.15S
FREMONT        SUNNY     67  37  33 E8        30.13S
TEKAMAH        SUNNY     67  42  40 NE8       30.12F
WAYNE          SUNNY     66  36  32 NE8       30.15S
$$

NEZ050>053-065>068-078-088>093-251800-
SOUTHEAST NEBRASKA

CITY           SKY/WX    TMP DP  RH WIND       PRES   REMARKS
LINCOLN        SUNNY     66  46  48 E7        30.13S
OMAHA EPPLEY   MOSUNNY   68  42  38 NE8       30.12S
BEATRICE       SUNNY     70  49  47 E7        30.10F
FALLS CITY     SUNNY     71  50  47 E8        30.09S
NEBRASKA CITY  SUNNY     68  39  34 E8        30.10F
PLATTSMOUTH    SUNNY     67  40  37 NE7       30.11F
$$

NEZ044-045-051>053-067-251800-
OMAHA AREA

CITY           SKY/WX    TMP DP  RH WIND       PRES   REMARKS
OMAHA EPPLEY   MOSUNNY   68  42  38 NE8       30.12S
BLAIR          SUNNY     65  41  41 NE9       30.12S
FREMONT        SUNNY     67  37  33 E8        30.13S
MILLARD        SUNNY     66  43  42 NE6       30.11S
OFFUTT AFB     SUNNY     68  49  49 E7        30.11S
PLATTSMOUTH    SUNNY     67  40  37 NE7       30.11F
WAHOO          FAIR      66  40  37 E9        30.13R
$$



USA.gov is the U.S. government's official web portal to all federal, state and local government web resources and services.